Location: Linz
(48.3300°N, 14.3000°E)
Time: 00:32:02
(UTC+01:00)

YUBILEINY - Pass Details

Date: 25 February 2019
Orbit: 1479 x 1508 km, 82.5° (Epoch: 24 March)

Event Time Altitude Azimuth Distance (km) Brightness Sun altitude
Rises 04:57:53 0° 199° (SSW) 4,587 ? -19.8°
Reaches altitude 10° 05:00:47 10° 202° (SSW) 3,611 ? -19.3°
Maximum altitude 05:09:23 65° 284° (WNW) 1,608 ? -17.9°
Drops below altitude 10° 05:18:05 10° 6° (N) 3,642 ? -16.5°
Sets 05:21:03 0° 10° (N) 4,629 ? -16.0°
